This demonstration page uses our WeatherBlox Daily Observations layout. Learn more.

Left ArrowRight Arrow

41.55636, -103.73856

Hourly Observations for September 22, 2021

Temp ( °F °C ) Dew Point ( °F °C ) Humidity (%) Winds ( mph kmh ) Pressure ( in mb ) Visibility ( mi km ) Precip ( " mm )
12:58 am 00:58 Clear 49 9.6 22 -5.3 35 35 SSW 17 28 30.34 1028 10 16 N/A
1:58 am 01:58 Clear 48 8.9 24 -4.3 39 39 SSW 22 35 30.32 1027 10 16 N/A
2:58 am 02:58 Clear 47 8.6 25 -4 41 41 SSW 22 35 30.31 1027 10 16 N/A
3:58 am 03:58 Clear 48 8.9 24 -4.5 39 39 SSW 18 30 30.30 1026 10 16 N/A
4:58 am 04:58 Clear 49 9.2 23 -5 37 37 SSW 17 28 30.30 1026 10 16 N/A
5:58 am 05:58 Clear 50 10 23 -5 35 35 SW 12 19 30.28 1026 10 16 N/A
6:58 am 06:58 Sunny 44 6.7 27 -3 50 50 N N/A 30.32 1027 10 16 N/A
7:58 am 07:58 Sunny 45 7.3 28 -2.2 51 51 NW 6 9 30.33 1027 10 16 N/A
8:58 am 08:58 Sunny 54 12.2 28 -2.2 37 37 N N/A 30.30 1026 10 16 N/A
9:58 am 09:58 Sunny 64 17.8 22 -5.5 20 20 NW 12 19 30.27 1025 10 16 N/A
10:58 am 10:58 Sunny 68 20 23 -5 18 18 NW 9 15 30.24 1024 10 16 N/A
12:56 pm 12:56 Sunny 73 22.7 22 -5.7 15 15 NNW 9 15 30.18 1022 10 16 N/A
1:58 pm 13:58 Sunny 75 24 22 -5.3 14 14 NE 3 6 30.14 1021 10 16 N/A
2:58 pm 14:58 Sunny 76 24.5 22 -5.3 13 13 ENE 5 7 30.10 1019 10 16 N/A
3:58 pm 15:58 Sunny 78 25.3 22 -5.4 13 13 N N/A 30.08 1019 10 16 N/A
4:58 pm 16:58 Sunny 78 25.8 22 -5.8 12 12 E 3 6 30.05 1018 10 16 N/A
5:58 pm 17:58 Sunny 76 24.6 24 -4.7 14 14 ESE 6 9 30.03 1017 10 16 N/A
6:58 pm 18:58 Clear 67 19.6 25 -3.9 20 20 ESE 14 22 30.06 1018 10 16 N/A
7:58 pm 19:58 Clear 65 18.3 25 -4.1 22 22 SE 14 22 30.06 1018 10 16 N/A
8:58 pm 20:58 Clear 64 17.7 24 -4.2 22 22 S 16 26 30.04 1017 10 16 N/A
9:58 pm 21:58 Clear 63 17.3 23 -4.8 22 22 SSW 21 33 30.01 1016 10 16 N/A
10:58 pm 22:58 Clear 63 17 23 -5 22 22 SW 15 24 29.98 1015 10 16 N/A
11:58 pm 23:58 Clear 60 15.8 23 -4.9 24 24 SSW 20 31 29.94 1014 10 16 N/A

Powered by AerisWeather